| time (UTC) | temp C | wind direction | speed KPH | gust KPH | rain 1hr cm | rain 24hr cm | rain mn cm | humidity % | barometer mb |
| 20260504011555 | 12 | 129 | 0.0 | 0.0 | 0.00 | 0.00 | 0.00 | 63 | 1014.1 |
| 20260504010054 | 13 | 129 | 0.0 | 0.0 | 0.00 | 0.00 | 0.00 | 63 | 1013.9 |
| 20260504004554 | 13 | 129 | 0.0 | 0.0 | 0.00 | 0.00 | 0.00 | 59 | 1013.6 |
| 20260504003054 | 15 | 129 | 0.0 | 0.0 | 0.00 | 0.00 | 0.00 | 57 | 1013.4 |
| 20260504001605 | 15 | 129 | 0.0 | 0.0 | 0.00 | 0.00 | 0.00 | 52 | 1013.3 |
| 20260504000056 | 16 | 124 | 0.0 | 4.8 | 0.00 | 0.00 | 0.00 | 49 | 1013.3 |
| 20260503234551 | 16 | 172 | 1.6 | 6.4 | 0.00 | 0.00 | 0.00 | 45 | 1013.4 |
| 20260503233050 | 16 | 148 | 0.0 | 8.0 | 0.00 | 0.00 | 0.00 | 44 | 1013.3 |
| 20260503231552 | 17 | 121 | 1.6 | 11.3 | 0.00 | 0.00 | 0.00 | 41 | 1013.4 |
| 20260503230051 | 17 | 207 | 1.6 | 11.3 | 0.00 | 0.00 | 0.00 | 40 | 1013.7 |
| 20260503224544 | 17 | 160 | 0.0 | 4.8 | 0.00 | 0.00 | 0.00 | 42 | 1014.0 |
| 20260503223043 | 17 | 158 | 0.0 | 3.2 | 0.00 | 0.00 | 0.00 | 41 | 1014.3 |
| 20260503221544 | 17 | 225 | 0.0 | 4.8 | 0.00 | 0.00 | 0.00 | 40 | 1014.6 |
| 20260503220039 | 17 | 186 | 0.0 | 9.7 | 0.00 | 0.00 | 0.00 | 39 | 1014.5 |
| 20260503214538 | 17 | 359 | 0.0 | 6.4 | 0.00 | 0.00 | 0.00 | 38 | 1014.9 |
| 20260503213042 | 17 | 134 | 3.2 | 12.9 | 0.00 | 0.00 | 0.00 | 37 | 1015.1 |
| 20260503211537 | 17 | 146 | 3.2 | 12.9 | 0.00 | 0.00 | 0.00 | 37 | 1015.0 |
| 20260503210034 | 17 | 259 | 1.6 | 8.0 | 0.00 | 0.00 | 0.00 | 38 | 1015.0 |
| 20260503204532 | 17 | 124 | 4.8 | 16.1 | 0.00 | 0.00 | 0.00 | 37 | 1015.5 |
| 20260503203026 | 17 | 68 | 1.6 | 9.7 | 0.00 | 0.00 | 0.00 | 38 | 1015.6 |
| 20260503201525 | 17 | 359 | 0.0 | 9.7 | 0.00 | 0.00 | 0.00 | 38 | 1016.0 |
| 20260503200023 | 17 | 356 | 0.0 | 11.3 | 0.00 | 0.00 | 0.00 | 36 | 1016.1 |
| 20260503194519 | 17 | 354 | 0.0 | 8.0 | 0.00 | 0.00 | 0.00 | 38 | 1016.8 |
| 20260503193017 | 16 | 153 | 3.2 | 11.3 | 0.00 | 0.00 | 0.00 | 37 | 1017.1 |
| 20260503191515 | 16 | 285 | 0.0 | 8.0 | 0.00 | 0.00 | 0.00 | 36 | 1017.4 |
| 20260503190034 | 16 | 156 | 0.0 | 9.7 | 0.00 | 0.00 | 0.00 | 37 | 1017.7 |
| 20260503184510 | 16 | 172 | 0.0 | 9.7 | 0.00 | 0.00 | 0.00 | 38 | 1017.8 |
| 20260503183014 | 16 | 117 | 1.6 | 8.0 | 0.00 | 0.00 | 0.00 | 39 | 1017.8 |
| 20260503181506 | 16 | 177 | 1.6 | 9.7 | 0.00 | 0.00 | 0.00 | 36 | 1018.3 |
| 20260503180009 | 16 | 257 | 3.2 | 16.1 | 0.00 | 0.00 | 0.00 | 37 | 1018.4 |
| 20260503174505 | 16 | 203 | 3.2 | 9.7 | 0.00 | 0.00 | 0.00 | 38 | 1018.6 |
| 20260503173115 | 15 | 138 | 3.2 | 11.3 | 0.00 | 0.00 | 0.00 | 38 | 1018.8 |
| 20260503171559 | 16 | 192 | 1.6 | 8.0 | 0.00 | 0.00 | 0.00 | 38 | 1019.1 |
| 20260503081545 | 0 | 20 | 0.0 | 0.0 | 0.00 | 0.00 | 0.00 | 92 | 1019.4 |
| 20260503071540 | 1 | 20 | 0.0 | 0.0 | 0.00 | 0.00 | 0.00 | 92 | 1019.0 |
| 20260503054529 | 2 | 20 | 0.0 | 0.0 | 0.00 | 0.00 | 0.00 | 91 | 1019.4 |
| 20260503053021 | 2 | 20 | 0.0 | 0.0 | 0.00 | 0.00 | 0.00 | 90 | 1019.5 |
| 20260503051517 | 2 | 20 | 0.0 | 0.0 | 0.00 | 0.00 | 0.00 | 90 | 1019.3 |
| 20260503050014 | 3 | 20 | 0.0 | 0.0 | 0.00 | 0.00 | 0.00 | 89 | 1019.3 |
| 20260503044512 | 3 | 20 | 0.0 | 0.0 | 0.00 | 0.00 | 0.00 | 88 | 1019.3 |
| 20260503043009 | 3 | 20 | 0.0 | 0.0 | 0.00 | 0.00 | 0.00 | 88 | 1019.3 |
| 20260503041507 | 3 | 20 | 0.0 | 0.0 | 0.00 | 0.00 | 0.00 | 87 | 1019.2 |
| 20260503040005 | 4 | 20 | 0.0 | 0.0 | 0.00 | 0.00 | 0.00 | 87 | 1019.2 |
| 20260503034504 | 4 | 20 | 0.0 | 0.0 | 0.00 | 0.00 | 0.00 | 87 | 1019.2 |
| 20260503033003 | 5 | 20 | 0.0 | 0.0 | 0.00 | 0.00 | 0.00 | 85 | 1019.1 |
| 20260503031503 | 5 | 20 | 0.0 | 0.0 | 0.00 | 0.00 | 0.00 | 86 | 1019.1 |
| 20260503030002 | 5 | 20 | 0.0 | 0.0 | 0.00 | 0.00 | 0.00 | 84 | 1019.0 |
| 20260503024502 | 6 | 20 | 0.0 | 0.0 | 0.00 | 0.00 | 0.00 | 85 | 1018.9 |
| 20260503023104 | 6 | 20 | 0.0 | 0.0 | 0.00 | 0.00 | 0.00 | 85 | 1018.8 |
| 20260503021601 | 6 | 20 | 0.0 | 0.0 | 0.00 | 0.00 | 0.00 | 85 | 1018.6 |
| 20260503020059 | 6 | 20 | 0.0 | 0.0 | 0.00 | 0.00 | 0.00 | 85 | 1018.5 |
| 20260503014622 | 6 | 20 | 0.0 | 0.0 | 0.00 | 0.00 | 0.00 | 85 | 1018.2 |
| 20260503013054 | 7 | 20 | 0.0 | 0.0 | 0.00 | 0.00 | 0.00 | 83 | 1018.0 |